Concordia, KS

2:57 PM CST on December 09, 2019 (GMT -0600)
Blosser Municipal

Weather History for KCNK - October, 2019

Change the Weather History Date:

Sunday, October 20, 2019

  Actual Average Record
Temperature  
Mean Temperature 59 °F 54 °F  
Max Temperature 67 °F 66 °F 93 °F (1947)
Min Temperature 51 °F 42 °F 21 °F (1916)
Degree Days  
Heating Degree Days 6 11  
Month to date heating degree days 160 169  
Since 1 July heating degree days 163 242  
Cooling Degree Days 0 0  
Month to date cooling degree days 9 20  
Year to date cooling degree days 1657 1346  
Growing Degree Days 8 (Base 50)    
Moisture  
Dew Point 41 °F    
Average Humidity 57    
Maximum Humidity 83    
Minimum Humidity 31    
Precipitation  
Precipitation 0.00 in 0.06 in 0.93 in (1963)
Month to date precipitation 1.20 1.33  
Year to date precipitation 32.22 25.34  
Snow  
Snow 0.00 in 0.00 in T in (1930)
Month to date snowfall 0.0 0.0  
Year to date snowfall 32.3 13.7  
Since 1 July snowfall 0.0 0.0  
Snow Depth 0.00 in    
Sea Level Pressure  
Sea Level Pressure 29.65 in    
Wind  
Wind Speed 15 mph (South)    
Max Wind Speed 28 mph    
Max Gust Speed 39 mph    
Visibility 10 miles    
Events      
T = Trace of Precipitation, MM = Missing Value Source: NWS Daily Summary

Daily Weather History Graph

Daily Weather History Graph

Search for Another Location

Airport or City:

Astronomy

Oct. 20, 2019 Rise Set
Actual Time 7:45 AM CDT 6:44 PM CDT
Civil Twilight 7:18 AM CDT 7:11 PM CDT
Nautical Twilight 6:47 AM CDT 7:43 PM CDT
Astronomical Twilight 6:15 AM CDT 8:14 PM CDT
Moon 11:55 PM CDT (10/20) 2:13 PM CDT (10/20)
Length of Visible Light 11h 53m
Length of Day
10h 58m
Waning Gibbous, 59% of the Moon is Illuminated
Oct 20
Waning Gibbous
Oct 21
Last Quarter
Oct 27
New
Nov 4
First Quarter
Nov 12
Full

Hourly Weather History & Observations

Time (CDT) Temp. Dew Point Humidity Pressure Visibility Wind Dir Wind Speed Gust Speed Precip Events Conditions
12:55 AM 53.1 °F 37.9 °F 57% 29.76 in 10.0 mi South 12.7 mph - N/A   Clear
1:55 AM 52.0 °F 37.9 °F 59% 29.75 in 10.0 mi South 12.7 mph - N/A   Clear
2:55 AM 53.1 °F 37.0 °F 55% 29.74 in 10.0 mi SSE 11.5 mph - N/A   Clear
3:55 AM 53.1 °F 39.0 °F 59% 29.73 in 10.0 mi South 15.0 mph - N/A   Clear
4:55 AM 52.0 °F 37.9 °F 59% 29.73 in 10.0 mi South 15.0 mph - N/A   Clear
5:55 AM 51.1 °F 39.0 °F 63% 29.71 in 10.0 mi SSE 11.5 mph - N/A   Clear
6:55 AM 52.0 °F 43.0 °F 71% 29.69 in 10.0 mi SSE 17.3 mph - N/A   Clear
7:55 AM 52.0 °F 46.0 °F 80% 29.70 in 10.0 mi SSE 17.3 mph - N/A   Clear
8:55 AM 55.0 °F 48.9 °F 80% 29.69 in 10.0 mi SSE 18.4 mph - N/A   Partly Cloudy
9:55 AM 57.0 °F 48.9 °F 74% 29.68 in 10.0 mi SSE 24.2 mph 34.5 mph N/A   Clear
10:55 AM 59.0 °F 50.0 °F 72% 29.69 in 10.0 mi SSE 19.6 mph 31.1 mph N/A   Clear
11:55 AM 61.0 °F 48.0 °F 62% 29.68 in 10.0 mi SSE 21.9 mph 33.4 mph N/A   Partly Cloudy
12:55 PM 63.0 °F 48.0 °F 58% 29.62 in 10.0 mi SSE 25.3 mph 39.1 mph N/A   Clear
1:55 PM 64.0 °F 46.9 °F 54% 29.59 in 10.0 mi SSE 23.0 mph 39.1 mph N/A   Clear
2:55 PM 66.0 °F 48.9 °F 54% 29.57 in 10.0 mi South 20.7 mph 28.8 mph N/A   Mostly Cloudy
3:55 PM 66.0 °F 48.0 °F 52% 29.57 in 10.0 mi South 10.4 mph - N/A   Overcast
4:55 PM 66.0 °F 48.0 °F 52% 29.58 in 10.0 mi SW 12.7 mph 21.9 mph N/A   Overcast
5:55 PM 66.0 °F 46.9 °F 50% 29.59 in 10.0 mi WSW 9.2 mph - N/A   Scattered Clouds
6:55 PM 59.0 °F 37.0 °F 44% 29.60 in 10.0 mi West 8.1 mph - N/A   Clear
7:55 PM 59.0 °F 32.0 °F 36% 29.61 in 10.0 mi West 9.2 mph - N/A   Overcast
8:55 PM 59.0 °F 28.9 °F 32% 29.62 in 10.0 mi SW 8.1 mph - N/A   Scattered Clouds
9:55 PM 55.9 °F 28.0 °F 34% 29.60 in 10.0 mi SW 8.1 mph - N/A   Clear
10:55 PM 57.0 °F 30.0 °F 36% 29.58 in 10.0 mi West 16.1 mph 25.3 mph N/A   Clear
11:55 PM 55.0 °F 32.0 °F 42% 29.53 in 10.0 mi West 19.6 mph 28.8 mph N/A   Clear